CZ-6A DEB, 60624

Orbit data source: Space-Track

CZ-6A DEB, 60624 is space debris in LEO originally from a launch on Tue, 06 Aug 2024 UTC launched from the Taiyaun Space Center, China (TSC). Debris objects in space refer to the collection of defunct objects orbiting the Earth. Examples of debris include non-operational satellites, rocket bodies, and fragments generated from explosions, collisions, or faulty payload assembly.

Loading next visibility...
Identifier
60624, 2024-140Z
Orbit
LEO
Country
Flag of CNCN / PRC
Related business
Manufacturer
SAST
Mission
Spacecraft
Bus & Motor
Unknown
Mass
Unknown
Launch date (UTC)
2024-08-06 (2 years ago)
Launch vehicle
Unknown
Launch site
Taiyaun Space Center, China (TSC)
Object type
Payload
Rocket body
Debris
Shape & HBR
Unknown shape, 0.7 m
Radar Cross Section
Large (>1 m²)

Expand to show TLE details & history
Last TLE update: 13 hours ago

TLE from 13 hours ago
0 CZ-6A DEB
1 60624U 24140Z   26171.32246109  .00001102  00000-0  22165-3 0  9996
2 60624  89.0369 272.6512 0108488 242.2925 116.7247 14.57228550 99145
Epoch: 2026-06-20T07:44Z
TLE epoch observation values (Epoch: 2026-06-20T07:44:20.638Z)
Latitude
-0.00003°
Longitude
-111.97354°
Altitude
740.454 km
Speed
7.466 km/s
True Right ascension
18h 10m 36s
True Declination
0° 00' 00"
Sunlit
Object was in full shadow at epoch
Visualization orbit readout
Latitude
Unknown
Longitude
Unknown
Altitude
Unknown
Speed
Unknown
Apparent Right ascension
Unknown
Apparent Declination
Unknown
Sunlit
N/A
Visualization observer readout
Local Sidereal Time
07:23:46
Azimuth
Unknown
Elevation
Unknown
Doppler factor
Unknown
Orbital elements
Apogee altitude
775.813 km
Perigee altitude
622.255 km
Semi-major axis
7,077.171 km
Eccentricity
0.01085
Inclination
89.0369°
RAAN
272.6512°
Arg. of periapsis
242.2925°
True anomaly
117.82828°
Mean anomaly
116.7247°
Eccentric anomaly
117.27717°
Mean motion
3.64547 °/min
Orbital period
98.75 mins
BSTAR
0.00022165
Loading maneuver chart data...
Computing Atmospheric mass density...
Loading historical data...
Loading historical data...
Loading historical data...
Loading historical data...
Loading historical data...
Loading historical data...
Loading historical data...

Documentation

Showing up to 5 results
|